QPF
0.05 0.04 0.03 0.02 0.01 0.01 0.01 0.00 0.01 0.01 0.00 0.01 0.00 0.00 0.01 0.02 0.03 0.03 0.04 0.05 0.05 0.06 0.06 0.04 0.05 0.06 0.06 0.05 0.05 0.05 0.09 0.11 0.14 0.15 0.13 0.12 0.16 0.17 0.18 0.17 0.15 0.10 0.08 0.08
0.06 0.04 0.03 0.02 0.01 0.01 0.01 0.01 0.01 0.01 0.00 0.00 0.00 0.00 0.01 0.03 0.05 0.05 0.04 0.04 0.04 0.06 0.06 0.05 0.05 0.06 0.07 0.05 0.04 0.05 0.08 0.13 0.16 0.16 0.14 0.14 0.15 0.14 0.14 0.16 0.16 0.12 0.11 0.10
0.04 0.03 0.01 0.02 0.02 0.01 0.01 0.01 0.01 0.01 0.01 0.00 0.00 0.01 0.01 0.02 0.04 0.05 0.04 0.04 0.05 0.07 0.08 0.07 0.06 0.06 0.07 0.05 0.04 0.05 0.06 0.10 0.15 0.16 0.14 0.15 0.17 0.17 0.13 0.14 0.14 0.11 0.10 0.10
0.03 0.02 0.01 0.02 0.02 0.01 0.01 0.01 0.01 0.01 0.01 0.00 0.00 0.01 0.01 0.01 0.01 0.02 0.04 0.04 0.04 0.07 0.08 0.06 0.06 0.06 0.06 0.05 0.05 0.07 0.06 0.09 0.13 0.15 0.14 0.12 0.13 0.14 0.13 0.11 0.10 0.09 0.10 0.10
0.04 0.02 0.02 0.02 0.01 0.01 0.01 0.01 0.01 0.01 0.01 0.01 0.00 0.01 0.00 0.00 0.01 0.02 0.02 0.04 0.03 0.05 0.07 0.07 0.07 0.06 0.06 0.06 0.06 0.07 0.07 0.10 0.12 0.14 0.15 0.12 0.12 0.12 0.11 0.10 0.08 0.08 0.09 0.11
0.03 0.02 0.02 0.02 0.01 0.01 0.01 0.01 0.01 0.01 0.01 0.01 0.00 0.01 0.01 0.00 0.01 0.02 0.02 0.03 0.05 0.05 0.05 0.05 0.06 0.05 0.05 0.06 0.05 0.05 0.07 0.09 0.11 0.11 0.12 0.11 0.10 0.10 0.11 0.10 0.06 0.07 0.08 0.09
0.02 0.03 0.02 0.01 0.01 0.01 0.01 0.02 0.02 0.02 0.01 0.01 0.00 0.00 0.01 0.00 0.01 0.02 0.03 0.03 0.04 0.05 0.05 0.05 0.05 0.05 0.05 0.05 0.06 0.06 0.06 0.06 0.07 0.07 0.08 0.10 0.11 0.11 0.10 0.12 0.08 0.06 0.07 0.07
0.02 0.02 0.02 0.01 0.01 0.01 0.01 0.02 0.02 0.02 0.01 0.00 0.00 0.00 0.00 0.00 0.00 0.01 0.03 0.03 0.03 0.03 0.04 0.05 0.05 0.05 0.05 0.05 0.06 0.07 0.07 0.07 0.07 0.06 0.06 0.07 0.09 0.12 0.13 0.14 0.12 0.09 0.08 0.06
0.01 0.01 0.01 0.01 0.01 0.00 0.01 0.01 0.01 0.01 0.01 0.01 0.00 0.00 0.00 0.00 0.00 0.00 0.01 0.01 0.01 0.01 0.02 0.03 0.05 0.06 0.06 0.06 0.07 0.07 0.08 0.08 0.08 0.08 0.07 0.07 0.07 0.08 0.08 0.10 0.12 0.12 0.11 0.09
0.01 0.01 0.00 0.01 0.02 0.01 0.01 0.01 0.01 0.01 0.01 0.01 0.01 0.00 0.00 0.00 0.00 0.00 0.01 0.01 0.01 0.01 0.01 0.01 0.03 0.06 0.07 0.07 0.08 0.07 0.08 0.08 0.08 0.09 0.08 0.08 0.07 0.07 0.06 0.07 0.08 0.10 0.11 0.11
0.01 0.01 0.01 0.00 0.01 0.02 0.00 0.01 0.01 0.01 0.01 0.01 0.01 0.01 0.00 0.00 0.01 0.01 0.01 0.01 0.01 0.01 0.01 0.02 0.03 0.05 0.07 0.07 0.08 0.07 0.07 0.06 0.05 0.06 0.07 0.07 0.06 0.06 0.07 0.08 0.08 0.08 0.09 0.09
0.00 0.01 0.01 0.00 0.00 0.01 0.01 0.01 0.01 0.02 0.01 0.01 0.02 0.01 0.00 0.00 0.01 0.01 0.01 0.01 0.01 0.01 0.01 0.02 0.03 0.04 0.06 0.09 0.10 0.08 0.07 0.05 0.04 0.04 0.05 0.06 0.05 0.06 0.07 0.07 0.08 0.08 0.09 0.10
0.00 0.00 0.01 0.00 0.00 0.00 0.00 0.00 0.00 0.01 0.01 0.01 0.02 0.01 0.00 0.00 0.01 0.01 0.01 0.01 0.02 0.02 0.02 0.02 0.03 0.04 0.05 0.07 0.10 0.09 0.09 0.08 0.06 0.05 0.05 0.04 0.04 0.04 0.04 0.05 0.07 0.07 0.06 0.07
0.00 0.00 0.00 0.01 0.00 0.00 0.00 0.00 0.00 0.00 0.01 0.01 0.01 0.01 0.00 0.01 0.01 0.01 0.01 0.01 0.01 0.02 0.02 0.03 0.03 0.03 0.04 0.05 0.08 0.10 0.11 0.09 0.06 0.05 0.04 0.05 0.04 0.04 0.04 0.06 0.07 0.07 0.07 0.07
0.00 0.00 0.00 0.00 0.00 0.00 0.00 0.00 0.00 0.00 0.00 0.00 0.00 0.00 0.00 0.00 0.01 0.01 0.01 0.01 0.01 0.02 0.03 0.03 0.04 0.05 0.06 0.05 0.05 0.06 0.07 0.07 0.07 0.06 0.05 0.06 0.07 0.07 0.07 0.08 0.08 0.08 0.08 0.10
0.00 0.00 0.00 0.00 0.00 0.00 0.00 0.00 0.00 0.00 0.00 0.00 0.00 0.00 0.00 0.00 0.00 0.00 0.01 0.01 0.01 0.02 0.02 0.03 0.03 0.05 0.06 0.06 0.06 0.06 0.06 0.06 0.07 0.06 0.06 0.06 0.07 0.06 0.07 0.08 0.09 0.09 0.09 0.10
0.00 0.00 0.00 0.00 0.00 0.00 0.00 0.00 0.00 0.00 0.00 0.00 0.00 0.00 0.00 0.00 0.00 0.00 0.00 0.01 0.01 0.01 0.02 0.02 0.02 0.04 0.04 0.05 0.05 0.06 0.06 0.06 0.06 0.06 0.06 0.06 0.06 0.07 0.07 0.06 0.06 0.06 0.07 0.07
0.00 0.00 0.01 0.00 0.00 0.00 0.00 0.00 0.00 0.00 0.00 0.00 0.00 0.00 0.00 0.00 0.00 0.00 0.00 0.00 0.00 0.00 0.01 0.01 0.01 0.02 0.03 0.03 0.04 0.04 0.04 0.05 0.05 0.05 0.05 0.06 0.05 0.05 0.05 0.06 0.06 0.06 0.06 0.06
0.00 0.00 0.01 0.01 0.00 0.00 0.00 0.00 0.00 0.00 0.00 0.00 0.00 0.00 0.00 0.00 0.00 0.00 0.00 0.00 0.00 0.00 0.00 0.00 0.01 0.01 0.01 0.02 0.03 0.03 0.03 0.03 0.04 0.04 0.04 0.05 0.05 0.05 0.04 0.04 0.05 0.06 0.06 0.07
0.00 0.00 0.01 0.01 0.01 0.00 0.00 0.00 0.00 0.00 0.00 0.00 0.00 0.00 0.00 0.00 0.00 0.00 0.00 0.00 0.00 0.00 0.00 0.00 0.00 0.00 0.00 0.00 0.01 0.01 0.01 0.02 0.02 0.03 0.03 0.03 0.03 0.03 0.04 0.04 0.05 0.05 0.05 0.05
0.00 0.00 0.01 0.00 0.00 0.00 0.00 0.00 0.00 0.00 0.00 0.00 0.00 0.00 0.00 0.00 0.00 0.00 0.00 0.00 0.00 0.00 0.00 0.01 0.01 0.01 0.00 0.00 0.01 0.01 0.01 0.01 0.01 0.02 0.01 0.01 0.02 0.02 0.03 0.03 0.03 0.04 0.04 0.04
0.00 0.00 0.00 0.00 0.00 0.00 0.00 0.00 0.00 0.00 0.00 0.00 0.00 0.00 0.00 0.00 0.00 0.00 0.00 0.00 0.00 0.00 0.00 0.01 0.01 0.01 0.00 0.00 0.01 0.01 0.00 0.01 0.01 0.01 0.01 0.01 0.02 0.02 0.02 0.02 0.03 0.03 0.03 0.03
0.00 0.00 0.00 0.00 0.00 0.00 0.00 0.00 0.00 0.00 0.00 0.00 0.00 0.00 0.00 0.00 0.00 0.00 0.00 0.00 0.00 0.00 0.00 0.00 0.01 0.01 0.01 0.00 0.00 0.01 0.01 0.01 0.01 0.02 0.02 0.02 0.02 0.02 0.02 0.02 0.02 0.02 0.02 0.02
0.00 0.00 0.00 0.00 0.00 0.00 0.00 0.00 0.00 0.00 0.00 0.00 0.00 0.00 0.00 0.00 0.00 0.00 0.00 0.00 0.00 0.00 0.00 0.00 0.01 0.01 0.01 0.01 0.01 0.01 0.01 0.01 0.01 0.02 0.02 0.02 0.01 0.01 0.01 0.01 0.02 0.02 0.02 0.02
0.00 0.00 0.00 0.00 0.00 0.00 0.00 0.00 0.00 0.00 0.00 0.00 0.00 0.00 0.00 0.00 0.00 0.00 0.00 0.00 0.00 0.00 0.00 0.00 0.00 0.00 0.00 0.01 0.01 0.01 0.01 0.01 0.01 0.01 0.01 0.01 0.01 0.01 0.01 0.01 0.01 0.01 0.01 0.02
0.00 0.00 0.00 0.00 0.00 0.00 0.00 0.00 0.00 0.00 0.00 0.00 0.00 0.00 0.00 0.00 0.00 0.00 0.00 0.00 0.00 0.00 0.00 0.00 0.00 0.00 0.00 0.00 0.00 0.00 0.01 0.01 0.01 0.01 0.01 0.01 0.01 0.01 0.01 0.01 0.01 0.01 0.01 0.02
MSLP
1014.77 1014.81 1014.78 1014.68 1014.55 1014.38 1014.21 1014.04 1013.88 1013.73 1013.60 1013.47 1013.35 1013.25 1013.19 1013.18 1013.24 1013.38 1013.59 1013.85 1014.15 1014.44 1014.67 1014.81 1014.82 1014.70 1014.44 1014.06 1013.59 1013.07 1012.54 1012.05 1011.60 1011.24 1010.94 1010.71 1010.54 1010.42 1010.32 1010.23 1010.16 1010.09 1010.04 1010.03
1015.40 1015.39 1015.31 1015.16 1014.97 1014.75 1014.52 1014.28 1014.06 1013.84 1013.65 1013.47 1013.33 1013.23 1013.20 1013.25 1013.40 1013.63 1013.95 1014.31 1014.68 1015.01 1015.26 1015.38 1015.35 1015.15 1014.81 1014.35 1013.81 1013.22 1012.62 1012.06 1011.55 1011.10 1010.73 1010.42 1010.17 1009.98 1009.82 1009.70 1009.61 1009.55 1009.53 1009.54
1015.72 1015.69 1015.59 1015.44 1015.25 1015.03 1014.79 1014.54 1014.29 1014.04 1013.80 1013.60 1013.43 1013.33 1013.32 1013.42 1013.63 1013.95 1014.34 1014.78 1015.21 1015.58 1015.83 1015.92 1015.85 1015.60 1015.19 1014.65 1014.03 1013.37 1012.70 1012.07 1011.48 1010.95 1010.49 1010.09 1009.75 1009.47 1009.25 1009.09 1008.99 1008.94 1008.95 1009.01
1015.73 1015.70 1015.62 1015.50 1015.35 1015.18 1014.99 1014.77 1014.54 1014.30 1014.06 1013.83 1013.65 1013.55 1013.54 1013.67 1013.92 1014.28 1014.74 1015.23 1015.70 1016.09 1016.35 1016.42 1016.31 1016.01 1015.54 1014.94 1014.25 1013.52 1012.78 1012.07 1011.40 1010.77 1010.21 1009.70 1009.26 1008.89 1008.60 1008.39 1008.28 1008.25 1008.29 1008.40
1015.48 1015.46 1015.42 1015.37 1015.30 1015.21 1015.11 1014.97 1014.80 1014.60 1014.38 1014.16 1013.97 1013.85 1013.84 1013.97 1014.23 1014.62 1015.10 1015.62 1016.12 1016.53 1016.79 1016.87 1016.73 1016.40 1015.88 1015.23 1014.48 1013.68 1012.87 1012.07 1011.31 1010.58 1009.90 1009.28 1008.73 1008.26 1007.89 1007.62 1007.48 1007.45 1007.52 1007.68
1015.09 1015.10 1015.11 1015.13 1015.16 1015.17 1015.18 1015.14 1015.06 1014.92 1014.74 1014.54 1014.35 1014.23 1014.20 1014.30 1014.55 1014.93 1015.42 1015.95 1016.47 1016.89 1017.17 1017.25 1017.11 1016.76 1016.22 1015.53 1014.73 1013.87 1012.98 1012.10 1011.23 1010.39 1009.60 1008.86 1008.19 1007.60 1007.13 1006.80 1006.60 1006.56 1006.64 1006.84
1014.71 1014.75 1014.80 1014.89 1015.01 1015.12 1015.23 1015.30 1015.31 1015.25 1015.12 1014.95 1014.77 1014.63 1014.57 1014.65 1014.86 1015.22 1015.69 1016.22 1016.73 1017.18 1017.47 1017.57 1017.44 1017.10 1016.55 1015.84 1015.00 1014.08 1013.12 1012.15 1011.18 1010.24 1009.33 1008.46 1007.67 1006.97 1006.39 1005.97 1005.70 1005.60 1005.67 1005.87
1014.47 1014.52 1014.62 1014.75 1014.93 1015.12 1015.31 1015.47 1015.56 1015.57 1015.49 1015.36 1015.19 1015.03 1014.95 1014.98 1015.15 1015.47 1015.90 1016.41 1016.92 1017.37 1017.69 1017.82 1017.72 1017.40 1016.86 1016.14 1015.28 1014.32 1013.30 1012.24 1011.19 1010.14 1009.13 1008.15 1007.24 1006.43 1005.73 1005.20 1004.83 1004.65 1004.65 1004.82
1014.45 1014.51 1014.61 1014.77 1014.97 1015.20 1015.43 1015.64 1015.79 1015.85 1015.82 1015.71 1015.56 1015.39 1015.28 1015.27 1015.39 1015.65 1016.04 1016.52 1017.02 1017.48 1017.82 1017.98 1017.92 1017.64 1017.13 1016.42 1015.55 1014.57 1013.50 1012.39 1011.27 1010.14 1009.04 1007.97 1006.96 1006.04 1005.23 1004.57 1004.09 1003.80 1003.70 1003.78
1014.66 1014.72 1014.80 1014.94 1015.12 1015.34 1015.58 1015.80 1015.97 1016.06 1016.06 1015.97 1015.82 1015.66 1015.52 1015.47 1015.55 1015.76 1016.10 1016.54 1017.03 1017.49 1017.84 1018.04 1018.03 1017.79 1017.33 1016.65 1015.80 1014.81 1013.73 1012.59 1011.43 1010.26 1009.10 1007.97 1006.88 1005.87 1004.96 1004.19 1003.57 1003.14 1002.91 1002.87
1015.04 1015.08 1015.13 1015.21 1015.34 1015.50 1015.69 1015.89 1016.04 1016.14 1016.15 1016.07 1015.94 1015.77 1015.63 1015.56 1015.59 1015.76 1016.06 1016.47 1016.93 1017.39 1017.76 1017.99 1018.03 1017.85 1017.44 1016.81 1016.00 1015.05 1013.98 1012.85 1011.68 1010.51 1009.33 1008.17 1007.05 1005.99 1005.00 1004.12 1003.38 1002.81 1002.42 1002.23
1015.49 1015.49 1015.49 1015.49 1015.53 1015.61 1015.72 1015.85 1015.96 1016.03 1016.04 1015.97 1015.85 1015.71 1015.57 1015.49 1015.51 1015.66 1015.93 1016.30 1016.74 1017.19 1017.58 1017.85 1017.93 1017.81 1017.47 1016.92 1016.17 1015.27 1014.26 1013.17 1012.04 1010.89 1009.74 1008.60 1007.48 1006.39 1005.36 1004.41 1003.57 1002.86 1002.32 1001.96
1015.89 1015.85 1015.78 1015.69 1015.63 1015.60 1015.61 1015.64 1015.69 1015.72 1015.71 1015.65 1015.56 1015.44 1015.33 1015.28 1015.31 1015.45 1015.71 1016.07 1016.50 1016.94 1017.34 1017.64 1017.77 1017.72 1017.45 1016.98 1016.32 1015.51 1014.57 1013.56 1012.50 1011.41 1010.32 1009.23 1008.14 1007.08 1006.04 1005.06 1004.14 1003.34 1002.67 1002.16
1016.14 1016.06 1015.92 1015.75 1015.58 1015.43 1015.32 1015.26 1015.22 1015.20 1015.17 1015.13 1015.07 1015.00 1014.95 1014.94 1015.01 1015.18 1015.45 1015.81 1016.24 1016.68 1017.10 1017.42 1017.60 1017.60 1017.42 1017.03 1016.47 1015.76 1014.92 1014.01 1013.04 1012.04 1011.04 1010.02 1009.01 1007.99 1006.99 1006.01 1005.08 1004.23 1003.47 1002.85
1016.22 1016.10 1015.89 1015.63 1015.36 1015.10 1014.88 1014.71 1014.59 1014.52 1014.47 1014.44 1014.43 1014.42 1014.45 1014.52 1014.66 1014.88 1015.18 1015.57 1016.01 1016.46 1016.89 1017.23 1017.45 1017.52 1017.40 1017.11 1016.64 1016.03 1015.31 1014.50 1013.64 1012.75 1011.84 1010.92 1009.99 1009.06 1008.12 1007.20 1006.30 1005.44 1004.66 1003.98
1016.13 1015.97 1015.70 1015.37 1015.01 1014.65 1014.33 1014.06 1013.87 1013.74 1013.68 1013.67 1013.70 1013.78 1013.90 1014.07 1014.30 1014.60 1014.96 1015.39 1015.85 1016.32 1016.76 1017.12 1017.37 1017.48 1017.43 1017.22 1016.85 1016.34 1015.72 1015.02 1014.27 1013.48 1012.67 1011.85 1011.03 1010.19 1009.35 1008.50 1007.68 1006.88 1006.13 1005.45
1015.92 1015.72 1015.41 1015.02 1014.59 1014.14 1013.73 1013.38 1013.12 1012.95 1012.88 1012.89 1012.98 1013.14 1013.37 1013.65 1013.99 1014.38 1014.82 1015.29 1015.79 1016.27 1016.72 1017.10 1017.37 1017.51 1017.52 1017.37 1017.08 1016.67 1016.14 1015.54 1014.89 1014.19 1013.48 1012.76 1012.02 1011.29 1010.55 1009.82 1009.09 1008.39 1007.73 1007.12
1015.66 1015.42 1015.08 1014.64 1014.15 1013.64 1013.16 1012.74 1012.42 1012.22 1012.14 1012.18 1012.33 1012.57 1012.90 1013.29 1013.74 1014.23 1014.75 1015.28 1015.82 1016.32 1016.77 1017.15 1017.43 1017.59 1017.63 1017.53 1017.31 1016.97 1016.53 1016.02 1015.45 1014.84 1014.21 1013.57 1012.93 1012.29 1011.66 1011.04 1010.44 1009.86 1009.31 1008.80
1015.39 1015.12 1014.74 1014.27 1013.73 1013.18 1012.65 1012.18 1011.82 1011.59 1011.51 1011.57 1011.77 1012.09 1012.52 1013.02 1013.57 1014.16 1014.75 1015.34 1015.90 1016.42 1016.87 1017.24 1017.52 1017.69 1017.74 1017.68 1017.51 1017.24 1016.87 1016.43 1015.93 1015.40 1014.84 1014.27 1013.70 1013.15 1012.61 1012.10 1011.62 1011.17 1010.76 1010.37
1015.15 1014.83 1014.41 1013.91 1013.35 1012.77 1012.20 1011.71 1011.33 1011.08 1011.00 1011.09 1011.33 1011.72 1012.22 1012.81 1013.46 1014.12 1014.78 1015.41 1016.00 1016.52 1016.97 1017.32 1017.59 1017.75 1017.82 1017.78 1017.65 1017.43 1017.12 1016.75 1016.32 1015.85 1015.35 1014.85 1014.35 1013.87 1013.41 1013.00 1012.62 1012.29 1011.99 1011.73
1014.92 1014.55 1014.09 1013.56 1012.97 1012.37 1011.80 1011.30 1010.91 1010.67 1010.60 1010.71 1011.00 1011.43 1012.00 1012.65 1013.36 1014.09 1014.80 1015.46 1016.06 1016.58 1017.02 1017.36 1017.60 1017.76 1017.83 1017.81 1017.71 1017.54 1017.29 1016.98 1016.61 1016.20 1015.77 1015.32 1014.88 1014.46 1014.08 1013.73 1013.44 1013.20 1013.00 1012.83
1014.68 1014.23 1013.72 1013.16 1012.57 1011.98 1011.42 1010.93 1010.56 1010.34 1010.29 1010.42 1010.73 1011.20 1011.81 1012.51 1013.26 1014.02 1014.76 1015.45 1016.05 1016.57 1016.99 1017.31 1017.54 1017.69 1017.77 1017.76 1017.70 1017.57 1017.37 1017.12 1016.82 1016.48 1016.11 1015.73 1015.34 1014.97 1014.64 1014.36 1014.12 1013.94 1013.80 1013.69
1014.37 1013.84 1013.28 1012.71 1012.12 1011.55 1011.02 1010.57 1010.24 1010.05 1010.03 1010.19 1010.52 1011.01 1011.63 1012.35 1013.12 1013.90 1014.65 1015.34 1015.95 1016.46 1016.87 1017.18 1017.40 1017.55 1017.63 1017.65 1017.61 1017.53 1017.39 1017.21 1016.98 1016.71 1016.41 1016.09 1015.76 1015.44 1015.16 1014.91 1014.71 1014.56 1014.45 1014.36
1013.97 1013.37 1012.77 1012.19 1011.62 1011.09 1010.62 1010.24 1009.96 1009.82 1009.84 1010.02 1010.36 1010.85 1011.47 1012.18 1012.95 1013.72 1014.46 1015.15 1015.75 1016.25 1016.66 1016.97 1017.19 1017.34 1017.43 1017.48 1017.48 1017.44 1017.36 1017.25 1017.09 1016.90 1016.67 1016.42 1016.15 1015.89 1015.65 1015.43 1015.25 1015.11 1015.00 1014.91
1013.50 1012.83 1012.21 1011.63 1011.11 1010.65 1010.26 1009.95 1009.75 1009.66 1009.72 1009.91 1010.25 1010.73 1011.32 1012.00 1012.74 1013.48 1014.20 1014.87 1015.46 1015.96 1016.36 1016.68 1016.91 1017.08 1017.19 1017.26 1017.30 1017.31 1017.29 1017.24 1017.16 1017.04 1016.89 1016.71 1016.52 1016.31 1016.11 1015.93 1015.76 1015.62 1015.49 1015.38
1012.97 1012.26 1011.65 1011.11 1010.65 1010.28 1009.98 1009.77 1009.64 1009.62 1009.70 1009.90 1010.22 1010.66 1011.21 1011.83 1012.51 1013.20 1013.88 1014.52 1015.10 1015.59 1016.00 1016.33 1016.58 1016.76 1016.90 1017.01 1017.08 1017.14 1017.17 1017.18 1017.17 1017.13 1017.06 1016.95 1016.83 1016.68 1016.53 1016.38 1016.23 1016.08 1015.94 1015.79
Thickness
5544 5544 5545 5551 5556 5559 5561 5561 5562 5566 5572 5569 5569 5572 5576 5578 5576 5574 5574 5573 5573 5575 5577 5578 5579 5581 5583 5585 5588 5592 5597 5602 5606 5611 5616 5621 5626 5633 5639 5645 5649 5653 5655 5657
5537 5539 5548 5552 5553 5554 5555 5555 5557 5563 5568 5565 5566 5570 5576 5576 5573 5572 5570 5568 5568 5569 5571 5572 5573 5575 5576 5578 5581 5585 5588 5593 5598 5603 5608 5613 5616 5623 5630 5634 5639 5642 5646 5649
5534 5539 5547 5547 5547 5548 5550 5551 5553 5554 5558 5564 5564 5567 5574 5575 5574 5571 5569 5566 5565 5565 5565 5566 5568 5569 5571 5572 5574 5579 5582 5586 5591 5597 5601 5604 5608 5614 5618 5623 5628 5632 5636 5640
5534 5540 5543 5543 5543 5547 5544 5553 5551 5548 5544 5548 5556 5550 5569 5570 5569 5567 5564 5562 5561 5561 5561 5562 5563 5564 5565 5566 5569 5572 5575 5580 5584 5588 5592 5596 5600 5604 5609 5614 5618 5622 5626 5630
5532 5538 5538 5539 5542 5544 5542 5548 5546 5544 5542 5542 5553 5548 5560 5565 5561 5561 5560 5558 5557 5557 5556 5556 5557 5558 5559 5561 5563 5566 5569 5573 5577 5581 5584 5588 5592 5596 5600 5604 5608 5611 5615 5620
5533 5537 5537 5538 5541 5542 5542 5543 5545 5544 5539 5537 5556 5551 5554 5557 5557 5558 5557 5556 5554 5553 5553 5552 5553 5553 5553 5554 5557 5560 5562 5565 5569 5572 5576 5579 5583 5587 5590 5593 5597 5601 5605 5609
5532 5534 5536 5538 5537 5539 5538 5532 5532 5533 5533 5544 5561 5553 5553 5560 5560 5557 5554 5552 5551 5550 5548 5547 5547 5546 5546 5547 5549 5551 5554 5557 5560 5563 5567 5571 5574 5578 5582 5585 5588 5591 5594 5599
5525 5525 5533 5535 5535 5532 5533 5532 5526 5529 5538 5547 5556 5551 5556 5560 5558 5555 5552 5550 5548 5546 5543 5542 5540 5539 5540 5541 5542 5544 5547 5550 5553 5555 5558 5562 5565 5568 5572 5576 5579 5582 5586 5590
5526 5525 5534 5536 5536 5535 5533 5531 5533 5524 5531 5534 5550 5560 5555 5558 5552 5550 5548 5546 5543 5540 5538 5536 5535 5534 5534 5534 5535 5538 5541 5544 5546 5548 5551 5553 5556 5560 5563 5567 5569 5573 5577 5580
5526 5521 5531 5533 5533 5532 5532 5532 5525 5523 5527 5535 5552 5557 5547 5546 5546 5546 5544 5541 5538 5536 5534 5532 5530 5529 5528 5529 5530 5532 5534 5536 5538 5540 5542 5546 5549 5552 5556 5559 5561 5565 5568 5571
5525 5520 5525 5530 5529 5530 5529 5529 5527 5526 5527 5525 5534 5543 5553 5548 5546 5543 5540 5538 5535 5532 5530 5528 5526 5525 5524 5524 5525 5527 5528 5530 5531 5533 5536 5539 5542 5545 5548 5550 5554 5557 5560 5563
5523 5520 5518 5528 5534 5533 5532 5531 5527 5519 5523 5527 5525 5534 5552 5548 5546 5542 5539 5536 5533 5530 5526 5524 5523 5521 5520 5519 5520 5521 5522 5524 5525 5527 5530 5532 5535 5538 5541 5543 5546 5549 5552 5555
5522 5517 5513 5523 5523 5524 5527 5530 5528 5524 5517 5517 5522 5535 5549 5546 5543 5541 5537 5533 5530 5526 5523 5521 5520 5518 5517 5516 5517 5517 5517 5518 5520 5522 5524 5526 5529 5531 5533 5535 5538 5541 5544 5547
5520 5515 5513 5518 5526 5526 5524 5527 5527 5518 5507 5519 5528 5536 5542 5542 5539 5537 5534 5532 5527 5524 5521 5518 5516 5515 5514 5514 5513 5513 5513 5514 5515 5517 5519 5520 5521 5523 5525 5528 5530 5533 5536 5539
5516 5512 5518 5523 5530 5531 5530 5529 5526 5520 5520 5517 5531 5536 5540 5539 5538 5537 5533 5530 5527 5524 5520 5517 5513 5511 5511 5510 5509 5509 5509 5510 5511 5512 5513 5513 5514 5516 5518 5520 5522 5524 5527 5529
5515 5511 5514 5517 5530 5532 5530 5533 5532 5529 5529 5528 5531 5535 5544 5542 5539 5536 5532 5529 5526 5523 5519 5516 5513 5510 5507 5506 5505 5505 5505 5505 5506 5507 5507 5507 5507 5509 5511 5513 5515 5516 5517 5519
5511 5509 5510 5516 5531 5528 5527 5543 5538 5537 5538 5535 5530 5537 5543 5539 5538 5535 5531 5528 5524 5521 5517 5514 5510 5507 5505 5503 5502 5501 5501 5501 5501 5501 5501 5501 5501 5502 5504 5507 5508 5509 5509 5510
5509 5507 5504 5510 5518 5517 5545 5553 5551 5544 5542 5541 5540 5542 5542 5539 5537 5535 5532 5527 5522 5518 5514 5511 5507 5505 5503 5501 5500 5498 5498 5497 5496 5496 5495 5496 5496 5496 5497 5499 5500 5500 5501 5502
5508 5505 5503 5504 5510 5528 5547 5547 5545 5540 5538 5544 5541 5540 5539 5537 5532 5531 5531 5526 5520 5516 5513 5508 5505 5502 5500 5498 5496 5495 5494 5492 5491 5490 5490 5490 5489 5489 5490 5490 5491 5491 5492 5494
5504 5500 5494 5501 5502 5515 5544 5543 5543 5537 5528 5542 5541 5537 5533 5528 5518 5524 5527 5522 5518 5514 5510 5505 5502 5499 5496 5494 5492 5490 5488 5486 5485 5484 5483 5483 5482 5482 5481 5481 5482 5482 5483 5484
5493 5491 5488 5491 5499 5519 5539 5537 5534 5522 5530 5537 5536 5533 5528 5521 5519 5520 5521 5518 5514 5510 5506 5502 5499 5495 5492 5490 5488 5486 5483 5481 5480 5479 5478 5477 5476 5475 5475 5475 5474 5474 5474 5475
5502 5497 5496 5498 5499 5515 5532 5528 5524 5528 5533 5532 5530 5527 5524 5520 5518 5517 5515 5512 5508 5504 5501 5497 5493 5489 5487 5484 5482 5480 5477 5476 5475 5473 5472 5470 5469 5469 5468 5467 5467 5467 5466 5466
5510 5513 5512 5512 5521 5532 5531 5529 5531 5529 5527 5526 5523 5523 5520 5516 5513 5512 5509 5506 5503 5499 5495 5491 5487 5483 5480 5478 5475 5472 5471 5469 5468 5466 5464 5463 5462 5461 5460 5459 5458 5458 5456 5455
5518 5519 5512 5511 5523 5529 5529 5527 5527 5525 5522 5521 5519 5517 5514 5510 5508 5505 5502 5499 5496 5493 5489 5485 5480 5476 5473 5471 5468 5465 5464 5462 5460 5458 5456 5455 5453 5452 5450 5449 5448 5447 5445 5444
5515 5509 5501 5505 5517 5521 5526 5524 5523 5521 5518 5515 5513 5510 5508 5504 5501 5498 5495 5492 5489 5486 5482 5478 5473 5470 5467 5464 5461 5458 5456 5454 5451 5449 5447 5446 5444 5442 5441 5440 5438 5437 5435 5433
5509 5504 5498 5507 5516 5514 5518 5519 5518 5513 5510 5508 5505 5503 5500 5497 5494 5491 5488 5486 5483 5478 5474 5469 5466 5462 5460 5457 5453 5451 5448 5446 5443 5440 5438 5436 5434 5432 5431 5429 5428 5427 5426 5425